Time,TemperatureF,DewpointF,PressureIn,WindDirection,WindDirectionDegrees,WindSpeedMPH,WindSpeedGustMPH,Humidity,HourlyPrecipIn,Conditions,Clouds,dailyrainin,SoftwareType,DateUTC
2013-04-05 00:00:00,38.3,33.6,30.22,ENE,67,6.0,13.0,83,0.00,,,0.00,meteohub,2013-04-04 23:00:00,
2013-04-05 00:05:00,38.1,33.8,30.22,ENE,67,6.0,10.0,84,0.00,,,0.00,meteohub,2013-04-04 23:05:00,
2013-04-05 00:10:00,38.1,34.0,30.22,NNE,22,8.0,10.0,85,0.00,,,0.00,meteohub,2013-04-04 23:10:00,
2013-04-05 00:15:00,38.1,33.8,30.22,NE,45,6.0,10.0,84,0.00,,,0.00,meteohub,2013-04-04 23:15:00,
2013-04-05 00:20:00,37.9,33.8,30.22,NNE,22,6.0,10.0,85,0.00,,,0.00,meteohub,2013-04-04 23:20:00,
2013-04-05 00:26:00,37.9,33.8,30.22,NE,45,8.0,10.0,85,0.00,,,0.00,meteohub,2013-04-04 23:26:00,
2013-04-05 00:31:00,37.9,33.8,30.22,NE,45,6.0,10.0,85,0.00,,,0.00,meteohub,2013-04-04 23:31:00,
2013-04-05 00:37:00,37.8,33.6,30.22,NE,45,6.0,9.0,85,0.00,,,0.00,meteohub,2013-04-04 23:37:00,
2013-04-05 00:42:00,37.6,33.4,30.22,NE,45,4.0,11.0,85,0.00,,,0.00,meteohub,2013-04-04 23:42:00,
2013-04-05 00:47:00,37.4,33.3,30.22,NE,45,6.0,11.0,85,0.00,,,0.00,meteohub,2013-04-04 23:47:00,
2013-04-05 00:52:00,37.4,33.1,30.22,North,0,4.0,11.0,84,0.00,,,0.00,meteohub,2013-04-04 23:52:00,
2013-04-05 00:57:00,37.4,33.3,30.22,ENE,67,7.0,9.0,85,0.00,,,0.00,meteohub,2013-04-04 23:57:00,
2013-04-05 01:02:00,37.4,33.6,30.22,NE,45,13.0,13.0,86,0.00,,,0.00,meteohub,2013-04-05 00:02:00,
2013-04-05 01:07:00,37.0,33.3,30.22,NE,45,7.0,14.0,86,0.00,,,0.00,meteohub,2013-04-05 00:07:00,
2013-04-05 01:13:00,37.0,33.3,30.22,ENE,67,8.0,14.0,86,0.00,,,0.00,meteohub,2013-04-05 00:13:00,
2013-04-05 01:18:00,36.9,33.1,30.22,East,90,4.0,14.0,86,0.00,,,0.00,meteohub,2013-04-05 00:18:00,
2013-04-05 01:23:00,36.9,33.1,30.22,ENE,67,5.0,11.0,86,0.00,,,0.00,meteohub,2013-04-05 00:23:00,
2013-04-05 01:29:00,36.7,32.9,30.22,ENE,67,3.0,10.0,86,0.00,,,0.00,meteohub,2013-04-05 00:29:00,
2013-04-05 01:34:00,36.7,32.9,30.22,ENE,67,4.0,9.0,86,0.00,,,0.00,meteohub,2013-04-05 00:34:00,
2013-04-05 01:40:00,36.7,33.3,30.22,NNE,22,6.0,9.0,87,0.00,,,0.00,meteohub,2013-04-05 00:40:00,
2013-04-05 01:45:00,36.7,33.3,30.22,ENE,67,6.0,9.0,87,0.00,,,0.00,meteohub,2013-04-05 00:45:00,
2013-04-05 01:50:00,36.5,33.1,30.22,NE,45,8.0,10.0,87,0.00,,,0.00,meteohub,2013-04-05 00:50:00,
2013-04-05 01:55:00,36.5,33.1,30.22,ENE,67,8.0,10.0,87,0.00,,,0.00,meteohub,2013-04-05 00:55:00,
2013-04-05 02:01:00,36.5,33.1,30.22,ENE,67,3.0,10.0,87,0.00,,,0.00,meteohub,2013-04-05 01:01:00,
2013-04-05 02:07:00,36.5,33.3,30.22,ENE,67,4.0,9.0,88,0.00,,,0.00,meteohub,2013-04-05 01:07:00,
2013-04-05 02:12:00,36.7,33.4,30.22,ENE,67,7.0,9.0,88,0.00,,,0.00,meteohub,2013-04-05 01:12:00,
2013-04-05 02:17:00,36.7,33.4,30.22,NE,45,6.0,7.0,88,0.00,,,0.00,meteohub,2013-04-05 01:17:00,
2013-04-05 02:22:00,36.7,33.4,30.22,NE,45,8.0,8.0,88,0.00,,,0.00,meteohub,2013-04-05 01:22:00,
2013-04-05 02:27:00,36.7,33.4,30.22,NE,45,10.0,13.0,88,0.00,,,0.00,meteohub,2013-04-05 01:27:00,
2013-04-05 02:32:00,36.5,33.3,30.22,North,0,8.0,15.0,88,0.00,,,0.00,meteohub,2013-04-05 01:32:00,
2013-04-05 02:37:00,36.3,33.1,30.22,NE,45,10.0,15.0,88,0.00,,,0.00,meteohub,2013-04-05 01:37:00,
2013-04-05 02:42:00,36.1,32.9,30.22,NNE,22,8.0,15.0,88,0.00,,,0.00,meteohub,2013-04-05 01:42:00,
2013-04-05 02:48:00,36.1,32.9,30.22,NNE,22,3.0,11.0,88,0.00,,,0.00,meteohub,2013-04-05 01:48:00,
2013-04-05 02:53:00,36.1,32.9,30.22,NNE,22,8.0,10.0,88,0.00,,,0.00,meteohub,2013-04-05 01:53:00,
2013-04-05 02:58:00,36.3,33.1,30.22,NNE,22,3.0,10.0,88,0.00,,,0.00,meteohub,2013-04-05 01:58:00,
2013-04-05 03:03:00,36.3,33.1,30.22,NNE,22,7.0,10.0,88,0.00,,,0.00,meteohub,2013-04-05 02:03:00,
2013-04-05 03:09:00,36.3,33.1,30.22,North,0,8.0,10.0,88,0.00,,,0.00,meteohub,2013-04-05 02:09:00,
2013-04-05 03:14:00,36.3,32.9,30.22,NNE,22,6.0,12.0,87,0.00,,,0.00,meteohub,2013-04-05 02:14:00,
2013-04-05 03:19:00,36.3,32.9,30.22,NNE,22,8.0,12.0,87,0.00,,,0.00,meteohub,2013-04-05 02:19:00,
2013-04-05 03:24:00,36.5,33.1,30.22,ENE,67,4.0,12.0,87,0.00,,,0.00,meteohub,2013-04-05 02:24:00,
2013-04-05 03:29:00,36.5,33.1,30.22,ESE,112,4.0,10.0,87,0.00,,,0.00,meteohub,2013-04-05 02:29:00,
2013-04-05 03:34:00,36.5,32.7,30.22,North,0,6.0,10.0,86,0.00,,,0.00,meteohub,2013-04-05 02:34:00,
2013-04-05 03:40:00,36.3,32.2,30.22,NE,45,5.0,11.0,85,0.00,,,0.00,meteohub,2013-04-05 02:40:00,
2013-04-05 03:45:00,36.3,32.0,30.22,ENE,67,7.0,11.0,84,0.00,,,0.00,meteohub,2013-04-05 02:45:00,
2013-04-05 03:51:00,36.5,31.5,30.22,NE,45,3.0,12.0,82,0.00,,,0.00,meteohub,2013-04-05 02:51:00,
2013-04-05 03:55:00,36.5,30.9,30.22,NE,45,7.0,12.0,80,0.00,,,0.00,meteohub,2013-04-05 02:55:00,
2013-04-05 04:01:00,36.5,30.6,30.22,NNE,22,6.0,12.0,79,0.00,,,0.00,meteohub,2013-04-05 03:01:00,
2013-04-05 04:06:00,36.5,30.6,30.22,NNE,22,9.0,10.0,79,0.00,,,0.00,meteohub,2013-04-05 03:06:00,
2013-04-05 04:12:00,36.5,30.4,30.22,NE,45,6.0,10.0,78,0.00,,,0.00,meteohub,2013-04-05 03:12:00,
2013-04-05 04:17:00,36.3,30.2,30.22,North,0,6.0,11.0,78,0.00,,,0.00,meteohub,2013-04-05 03:17:00,
2013-04-05 04:22:00,36.5,29.7,30.22,NE,45,6.0,13.0,76,0.00,,,0.00,meteohub,2013-04-05 03:22:00,
2013-04-05 04:27:00,36.3,29.5,30.22,NNE,22,8.0,13.0,76,0.00,,,0.00,meteohub,2013-04-05 03:27:00,
2013-04-05 04:32:00,36.3,29.5,30.22,North,0,6.0,13.0,76,0.00,,,0.00,meteohub,2013-04-05 03:32:00,
2013-04-05 04:37:00,36.3,29.5,30.22,NNE,22,8.0,11.0,76,0.00,,,0.00,meteohub,2013-04-05 03:37:00,
2013-04-05 04:43:00,36.3,29.1,30.22,North,0,4.0,10.0,75,0.00,,,0.00,meteohub,2013-04-05 03:43:00,
2013-04-05 04:48:00,36.3,29.1,30.19,North,0,6.0,10.0,75,0.00,,,0.00,meteohub,2013-04-05 03:48:00,
2013-04-05 04:55:00,36.3,28.8,30.19,NNE,22,10.0,10.0,74,0.00,,,0.00,meteohub,2013-04-05 03:55:00,
2013-04-05 05:00:00,36.3,28.8,30.19,NNE,22,4.0,10.0,74,0.00,,,0.00,meteohub,2013-04-05 04:00:00,
2013-04-05 05:01:00,36.3,28.8,30.19,NE,45,6.0,10.0,74,0.00,,,0.00,meteohub,2013-04-05 04:01:00,
2013-04-05 05:03:00,36.3,28.8,30.19,NNE,22,4.0,10.0,74,0.00,,,0.00,meteohub,2013-04-05 04:03:00,
2013-04-05 05:04:00,36.3,28.8,30.19,ENE,67,6.0,10.0,74,0.00,,,0.00,meteohub,2013-04-05 04:04:00,
2013-04-05 05:09:00,36.1,28.6,30.19,NE,45,9.0,10.0,74,0.00,,,0.00,meteohub,2013-04-05 04:09:00,
2013-04-05 05:14:00,36.1,28.4,30.19,NE,45,6.0,11.0,73,0.00,,,0.00,meteohub,2013-04-05 04:14:00,
2013-04-05 05:20:00,36.1,28.0,30.19,NNE,22,9.0,11.0,72,0.00,,,0.00,meteohub,2013-04-05 04:20:00,
2013-04-05 05:25:00,36.1,27.3,30.19,NE,45,9.0,11.0,70,0.00,,,0.00,meteohub,2013-04-05 04:25:00,
2013-04-05 05:30:00,36.1,27.3,30.19,East,90,6.0,11.0,70,0.00,,,0.00,meteohub,2013-04-05 04:30:00,
2013-04-05 05:35:00,36.1,27.0,30.19,ENE,67,6.0,11.0,69,0.00,,,0.00,meteohub,2013-04-05 04:35:00,
2013-04-05 05:40:00,36.1,27.0,30.19,NNE,22,3.0,9.0,69,0.00,,,0.00,meteohub,2013-04-05 04:40:00,
2013-04-05 05:45:00,36.1,26.6,30.19,NNW,337,7.0,11.0,68,0.00,,,0.00,meteohub,2013-04-05 04:45:00,
2013-04-05 05:50:00,36.1,26.6,30.19,North,0,9.0,11.0,68,0.00,,,0.00,meteohub,2013-04-05 04:50:00,
2013-04-05 05:55:00,36.0,26.4,30.19,NNE,22,5.0,11.0,68,0.00,,,0.00,meteohub,2013-04-05 04:55:00,
2013-04-05 06:01:00,36.0,26.1,30.19,North,0,8.0,11.0,67,0.00,,,0.00,meteohub,2013-04-05 05:01:00,
2013-04-05 06:06:00,36.0,26.1,30.22,NNE,22,11.0,12.0,67,0.00,,,0.00,meteohub,2013-04-05 05:06:00,
2013-04-05 06:12:00,36.0,25.7,30.22,NNE,22,6.0,12.0,66,0.00,,,0.00,meteohub,2013-04-05 05:12:00,
2013-04-05 06:17:00,35.8,25.5,30.22,NNE,22,8.0,12.0,66,0.00,,,0.00,meteohub,2013-04-05 05:17:00,
2013-04-05 06:22:00,35.8,25.2,30.19,NNE,22,13.0,13.0,65,0.00,,,0.00,meteohub,2013-04-05 05:22:00,
2013-04-05 06:27:00,35.8,25.2,30.19,NNE,22,10.0,13.0,65,0.00,,,0.00,meteohub,2013-04-05 05:27:00,
2013-04-05 06:32:00,35.8,25.2,30.22,NE,45,3.0,13.0,65,0.00,,,0.00,meteohub,2013-04-05 05:32:00,
2013-04-05 06:37:00,35.8,24.8,30.22,NNE,22,8.0,13.0,64,0.00,,,0.00,meteohub,2013-04-05 05:37:00,
2013-04-05 06:42:00,35.8,24.8,30.22,North,0,6.0,12.0,64,0.00,,,0.00,meteohub,2013-04-05 05:42:00,
2013-04-05 06:48:00,35.8,25.2,30.22,North,0,4.0,12.0,65,0.00,,,0.00,meteohub,2013-04-05 05:48:00,
2013-04-05 06:53:00,35.6,25.0,30.22,North,0,4.0,11.0,65,0.00,,,0.00,meteohub,2013-04-05 05:53:00,
2013-04-05 06:58:00,35.6,24.6,30.22,North,0,10.0,11.0,64,0.00,,,0.00,meteohub,2013-04-05 05:58:00,
2013-04-05 07:03:00,35.6,24.6,30.22,NNE,22,12.0,13.0,64,0.00,,,0.00,meteohub,2013-04-05 06:03:00,
2013-04-05 07:09:00,35.6,24.3,30.22,NE,45,8.0,13.0,63,0.00,,,0.00,meteohub,2013-04-05 06:09:00,
2013-04-05 07:14:00,35.6,24.3,30.22,NNE,22,11.0,13.0,63,0.00,,,0.00,meteohub,2013-04-05 06:14:00,
2013-04-05 07:19:00,35.6,24.3,30.22,NNE,22,10.0,13.0,63,0.00,,,0.00,meteohub,2013-04-05 06:19:00,
2013-04-05 07:24:00,35.6,23.9,30.22,NNE,22,10.0,11.0,62,0.00,,,0.00,meteohub,2013-04-05 06:24:00,
2013-04-05 07:30:00,35.6,23.9,30.22,ENE,67,8.0,11.0,62,0.00,,,0.00,meteohub,2013-04-05 06:30:00,
2013-04-05 07:35:00,35.6,23.9,30.22,North,0,8.0,11.0,62,0.00,,,0.00,meteohub,2013-04-05 06:35:00,
2013-04-05 07:40:00,35.8,24.1,30.22,NNE,22,6.0,11.0,62,0.00,,,0.00,meteohub,2013-04-05 06:40:00,
2013-04-05 07:45:00,35.8,24.1,30.22,ENE,67,8.0,11.0,62,0.00,,,0.00,meteohub,2013-04-05 06:45:00,
2013-04-05 07:51:00,35.8,24.1,30.22,NE,45,11.0,11.0,62,0.00,,,0.00,meteohub,2013-04-05 06:51:00,
2013-04-05 07:56:00,36.0,24.3,30.22,NE,45,10.0,13.0,62,0.00,,,0.00,meteohub,2013-04-05 06:56:00,
2013-04-05 08:01:00,36.0,24.3,30.22,NE,45,4.0,13.0,62,0.00,,,0.00,meteohub,2013-04-05 07:01:00,
2013-04-05 08:07:00,36.1,24.1,30.22,North,0,3.0,13.0,61,0.00,,,0.00,meteohub,2013-04-05 07:07:00,
2013-04-05 08:12:00,36.1,24.1,30.22,North,0,4.0,13.0,61,0.00,,,0.00,meteohub,2013-04-05 07:12:00,
2013-04-05 08:17:00,36.1,24.1,30.22,NNE,22,6.0,12.0,61,0.00,,,0.00,meteohub,2013-04-05 07:17:00,
2013-04-05 08:22:00,36.3,24.1,30.22,NW,315,4.0,12.0,61,0.00,,,0.00,meteohub,2013-04-05 07:22:00,
2013-04-05 08:27:00,36.5,24.8,30.22,ENE,67,4.0,12.0,62,0.00,,,0.00,meteohub,2013-04-05 07:27:00,
2013-04-05 08:33:00,36.7,25.0,30.22,NNE,22,8.0,12.0,62,0.00,,,0.00,meteohub,2013-04-05 07:33:00,
2013-04-05 08:38:00,36.7,24.4,30.22,NE,45,3.0,11.0,61,0.00,,,0.00,meteohub,2013-04-05 07:38:00,
2013-04-05 08:43:00,36.9,24.6,30.22,NE,45,9.0,13.0,61,0.00,,,0.00,meteohub,2013-04-05 07:43:00,
2013-04-05 08:48:00,36.9,24.3,30.22,East,90,6.0,17.0,60,0.00,,,0.00,meteohub,2013-04-05 07:48:00,
2013-04-05 08:53:00,37.0,24.4,30.22,NE,45,6.0,17.0,60,0.00,,,0.00,meteohub,2013-04-05 07:53:00,
2013-04-05 08:59:00,37.0,24.4,30.22,North,0,6.0,17.0,60,0.00,,,0.00,meteohub,2013-04-05 07:59:00,
2013-04-05 09:04:00,37.2,24.6,30.22,NNE,22,13.0,13.0,60,0.00,,,0.00,meteohub,2013-04-05 08:04:00,
2013-04-05 09:10:00,37.2,24.6,30.22,NNE,22,10.0,13.0,60,0.00,,,0.00,meteohub,2013-04-05 08:10:00,
2013-04-05 09:15:00,37.4,24.4,30.22,NNE,22,6.0,13.0,59,0.00,,,0.00,meteohub,2013-04-05 08:15:00,
2013-04-05 09:20:00,37.4,23.9,30.22,NNE,22,6.0,15.0,58,0.00,,,0.00,meteohub,2013-04-05 08:20:00,
2013-04-05 09:25:00,37.6,24.1,30.22,NE,45,12.0,15.0,58,0.00,,,0.00,meteohub,2013-04-05 08:25:00,
2013-04-05 09:31:00,37.8,23.9,30.22,NE,45,13.0,15.0,57,0.00,,,0.00,meteohub,2013-04-05 08:31:00,
2013-04-05 09:36:00,37.8,23.9,30.22,North,0,8.0,15.0,57,0.00,,,0.00,meteohub,2013-04-05 08:36:00,
2013-04-05 09:41:00,37.9,24.1,30.22,ENE,67,8.0,16.0,57,0.00,,,0.00,meteohub,2013-04-05 08:41:00,
2013-04-05 09:47:00,37.9,23.7,30.22,ENE,67,10.0,16.0,56,0.00,,,0.00,meteohub,2013-04-05 08:47:00,
2013-04-05 09:52:00,37.9,23.7,30.22,NE,45,8.0,16.0,56,0.00,,,0.00,meteohub,2013-04-05 08:52:00,
2013-04-05 09:57:00,37.9,23.7,30.22,NNE,22,6.0,14.0,56,0.00,,,0.00,meteohub,2013-04-05 08:57:00,
2013-04-05 10:02:00,37.9,23.2,30.22,NNE,22,7.0,14.0,55,0.00,,,0.00,meteohub,2013-04-05 09:02:00,
2013-04-05 10:07:00,38.1,23.4,30.25,NNE,22,8.0,14.0,55,0.00,,,0.00,meteohub,2013-04-05 09:07:00,
2013-04-05 10:12:00,38.5,24.1,30.25,North,0,7.0,14.0,56,0.00,,,0.00,meteohub,2013-04-05 09:12:00,
2013-04-05 10:17:00,38.7,23.9,30.25,NNE,22,14.0,14.0,55,0.00,,,0.00,meteohub,2013-04-05 09:17:00,
2013-04-05 10:22:00,38.8,24.1,30.25,North,0,13.0,15.0,55,0.00,,,0.00,meteohub,2013-04-05 09:22:00,
2013-04-05 10:28:00,39.2,23.9,30.25,NNE,22,9.0,15.0,54,0.00,,,0.00,meteohub,2013-04-05 09:28:00,
2013-04-05 10:33:00,39.2,23.9,30.25,NNE,22,8.0,15.0,54,0.00,,,0.00,meteohub,2013-04-05 09:33:00,
2013-04-05 10:38:00,39.2,23.9,30.25,ENE,67,9.0,15.0,54,0.00,,,0.00,meteohub,2013-04-05 09:38:00,
2013-04-05 10:43:00,39.4,24.1,30.25,NNE,22,8.0,15.0,54,0.00,,,0.00,meteohub,2013-04-05 09:43:00,
2013-04-05 10:48:00,39.4,24.1,30.25,NE,45,10.0,15.0,54,0.00,,,0.00,meteohub,2013-04-05 09:48:00,
2013-04-05 10:54:00,39.6,24.3,30.25,NNW,337,5.0,15.0,54,0.00,,,0.00,meteohub,2013-04-05 09:54:00,
2013-04-05 10:59:00,39.9,24.6,30.25,NE,45,8.0,14.0,54,0.00,,,0.00,meteohub,2013-04-05 09:59:00,
2013-04-05 11:05:00,39.9,24.6,30.25,NE,45,8.0,13.0,54,0.00,,,0.00,meteohub,2013-04-05 10:05:00,
2013-04-05 11:10:00,39.9,24.3,30.25,NE,45,10.0,14.0,53,0.00,,,0.00,meteohub,2013-04-05 10:10:00,
2013-04-05 11:15:00,40.1,24.3,30.25,East,90,10.0,14.0,53,0.00,,,0.00,meteohub,2013-04-05 10:15:00,
2013-04-05 11:21:00,40.3,24.4,30.22,NE,45,3.0,14.0,53,0.00,,,0.00,meteohub,2013-04-05 10:21:00,
2013-04-05 11:26:00,40.5,24.6,30.22,East,90,6.0,14.0,53,0.00,,,0.00,meteohub,2013-04-05 10:26:00,
2013-04-05 11:31:00,40.5,24.3,30.22,NE,45,7.0,13.0,52,0.00,,,0.00,meteohub,2013-04-05 10:31:00,
2013-04-05 11:37:00,40.5,24.3,30.25,NNE,22,10.0,13.0,52,0.00,,,0.00,meteohub,2013-04-05 10:37:00,
2013-04-05 11:41:00,40.3,24.1,30.25,NE,45,5.0,11.0,52,0.00,,,0.00,meteohub,2013-04-05 10:41:00,
2013-04-05 11:47:00,40.5,24.3,30.25,NNE,22,7.0,12.0,52,0.00,,,0.00,meteohub,2013-04-05 10:47:00,
2013-04-05 11:52:00,40.8,24.6,30.22,NNE,22,3.0,13.0,52,0.00,,,0.00,meteohub,2013-04-05 10:52:00,
2013-04-05 11:57:00,41.7,25.3,30.22,NE,45,10.0,13.0,52,0.00,,,0.00,meteohub,2013-04-05 10:57:00,
2013-04-05 12:02:00,42.3,25.3,30.22,NE,45,6.0,13.0,51,0.00,,,0.00,meteohub,2013-04-05 11:02:00,
2013-04-05 12:08:00,42.3,25.3,30.22,NE,45,11.0,12.0,51,0.00,,,0.00,meteohub,2013-04-05 11:08:00,
2013-04-05 12:13:00,42.3,25.3,30.22,NE,45,7.0,16.0,51,0.00,,,0.00,meteohub,2013-04-05 11:13:00,
2013-04-05 12:18:00,42.8,25.5,30.22,ENE,67,10.0,16.0,50,0.00,,,0.00,meteohub,2013-04-05 11:18:00,
2013-04-05 12:23:00,42.8,25.5,30.22,ENE,67,10.0,16.0,50,0.00,,,0.00,meteohub,2013-04-05 11:23:00,
2013-04-05 12:28:00,42.6,25.3,30.22,NE,45,8.0,15.0,50,0.00,,,0.00,meteohub,2013-04-05 11:28:00,
2013-04-05 12:34:00,43.2,25.7,30.22,NE,45,10.0,13.0,50,0.00,,,0.00,meteohub,2013-04-05 11:34:00,
2013-04-05 12:39:00,43.3,25.5,30.22,East,90,5.0,13.0,49,0.00,,,0.00,meteohub,2013-04-05 11:39:00,
2013-04-05 12:44:00,43.7,26.2,30.22,East,90,6.0,13.0,50,0.00,,,0.00,meteohub,2013-04-05 11:44:00,
2013-04-05 12:49:00,43.9,25.9,30.22,East,90,10.0,12.0,49,0.00,,,0.00,meteohub,2013-04-05 11:49:00,
2013-04-05 12:54:00,44.1,26.1,30.22,East,90,8.0,12.0,49,0.00,,,0.00,meteohub,2013-04-05 11:54:00,
2013-04-05 13:00:00,44.1,26.1,30.22,East,90,8.0,12.0,49,0.00,,,0.00,meteohub,2013-04-05 12:00:00,
2013-04-05 13:05:00,43.9,25.9,30.22,ENE,67,9.0,13.0,49,0.00,,,0.00,meteohub,2013-04-05 12:05:00,
2013-04-05 13:10:00,43.9,25.9,30.22,NNE,22,7.0,13.0,49,0.00,,,0.00,meteohub,2013-04-05 12:10:00,
2013-04-05 13:15:00,43.5,25.2,30.22,East,90,6.0,11.0,48,0.00,,,0.00,meteohub,2013-04-05 12:15:00,
2013-04-05 13:20:00,43.9,25.9,30.22,NE,45,6.0,11.0,49,0.00,,,0.00,meteohub,2013-04-05 12:20:00,
2013-04-05 13:25:00,44.2,26.2,30.22,NE,45,3.0,11.0,49,0.00,,,0.00,meteohub,2013-04-05 12:25:00,
2013-04-05 13:31:00,44.6,26.6,30.22,ESE,112,5.0,11.0,49,0.00,,,0.00,meteohub,2013-04-05 12:31:00,
2013-04-05 13:36:00,44.4,26.4,30.22,East,90,6.0,11.0,49,0.00,,,0.00,meteohub,2013-04-05 12:36:00,
2013-04-05 13:41:00,44.2,26.2,30.22,East,90,5.0,11.0,49,0.00,,,0.00,meteohub,2013-04-05 12:41:00,
2013-04-05 13:46:00,44.1,26.1,30.22,SE,135,8.0,11.0,49,0.00,,,0.00,meteohub,2013-04-05 12:46:00,
2013-04-05 13:51:00,44.2,26.2,30.22,East,90,6.0,11.0,49,0.00,,,0.00,meteohub,2013-04-05 12:51:00,
2013-04-05 13:56:00,44.2,26.2,30.22,ENE,67,6.0,11.0,49,0.00,,,0.00,meteohub,2013-04-05 12:56:00,
2013-04-05 14:02:00,44.1,25.7,30.22,ENE,67,8.0,9.0,48,0.00,,,0.00,meteohub,2013-04-05 13:02:00,
2013-04-05 14:07:00,44.1,25.7,30.22,NNE,22,4.0,13.0,48,0.00,,,0.00,meteohub,2013-04-05 13:07:00,
2013-04-05 14:12:00,44.1,25.7,30.22,ENE,67,8.0,13.0,48,0.00,,,0.00,meteohub,2013-04-05 13:12:00,
2013-04-05 14:17:00,44.2,26.2,30.22,SE,135,8.0,13.0,49,0.00,,,0.00,meteohub,2013-04-05 13:17:00,
2013-04-05 14:22:00,44.1,25.7,30.22,ENE,67,9.0,11.0,48,0.00,,,0.00,meteohub,2013-04-05 13:22:00,
2013-04-05 14:27:00,44.1,25.7,30.22,NE,45,6.0,11.0,48,0.00,,,0.00,meteohub,2013-04-05 13:27:00,
2013-04-05 14:32:00,44.2,26.2,30.22,ENE,67,3.0,11.0,49,0.00,,,0.00,meteohub,2013-04-05 13:32:00,
2013-04-05 14:37:00,44.1,26.1,30.22,NNE,22,11.0,11.0,49,0.00,,,0.00,meteohub,2013-04-05 13:37:00,
2013-04-05 14:43:00,44.2,26.2,30.22,East,90,6.0,11.0,49,0.00,,,0.00,meteohub,2013-04-05 13:43:00,
2013-04-05 14:47:00,44.2,26.2,30.22,ESE,112,4.0,11.0,49,0.00,,,0.00,meteohub,2013-04-05 13:47:00,
2013-04-05 14:52:00,44.4,25.9,30.22,NNE,22,5.0,11.0,48,0.00,,,0.00,meteohub,2013-04-05 13:52:00,
2013-04-05 14:58:00,44.6,26.1,30.22,NNW,337,3.0,10.0,48,0.00,,,0.00,meteohub,2013-04-05 13:58:00,
2013-04-05 15:03:00,44.6,26.1,30.22,NE,45,4.0,10.0,48,0.00,,,0.00,meteohub,2013-04-05 14:03:00,
2013-04-05 15:08:00,44.8,26.2,30.22,ENE,67,6.0,9.0,48,0.00,,,0.00,meteohub,2013-04-05 14:08:00,
2013-04-05 15:13:00,44.6,26.1,30.22,ENE,67,8.0,10.0,48,0.00,,,0.00,meteohub,2013-04-05 14:13:00,
2013-04-05 15:19:00,44.8,26.2,30.22,ENE,67,6.0,10.0,48,0.00,,,0.00,meteohub,2013-04-05 14:19:00,
2013-04-05 15:24:00,45.0,26.4,30.22,East,90,6.0,10.0,48,0.00,,,0.00,meteohub,2013-04-05 14:24:00,
2013-04-05 15:29:00,45.1,26.6,30.22,ENE,67,4.0,10.0,48,0.00,,,0.00,meteohub,2013-04-05 14:29:00,
2013-04-05 15:34:00,45.1,26.6,30.22,ESE,112,4.0,10.0,48,0.00,,,0.00,meteohub,2013-04-05 14:34:00,
2013-04-05 15:40:00,45.0,26.4,30.22,East,90,8.0,9.0,48,0.00,,,0.00,meteohub,2013-04-05 14:40:00,
2013-04-05 15:45:00,45.0,26.4,30.22,ENE,67,4.0,9.0,48,0.00,,,0.00,meteohub,2013-04-05 14:45:00,
2013-04-05 15:50:00,45.0,26.4,30.22,East,90,3.0,9.0,48,0.00,,,0.00,meteohub,2013-04-05 14:50:00,
2013-04-05 15:55:00,45.1,26.6,30.22,NNE,22,5.0,9.0,48,0.00,,,0.00,meteohub,2013-04-05 14:55:00,
2013-04-05 16:00:00,45.1,26.6,30.22,NNE,22,1.0,9.0,48,0.00,,,0.00,meteohub,2013-04-05 15:00:00,
2013-04-05 16:05:00,45.1,26.1,30.22,NNE,22,3.0,8.0,47,0.00,,,0.00,meteohub,2013-04-05 15:05:00,
2013-04-05 16:11:00,45.3,26.8,30.22,SSE,157,4.0,8.0,48,0.00,,,0.00,meteohub,2013-04-05 15:11:00,
2013-04-05 16:16:00,45.3,26.8,30.22,East,90,4.0,8.0,48,0.00,,,0.00,meteohub,2013-04-05 15:16:00,
2013-04-05 16:22:00,45.1,26.6,30.22,East,90,4.0,8.0,48,0.00,,,0.00,meteohub,2013-04-05 15:22:00,
2013-04-05 16:27:00,44.8,26.2,30.22,SE,135,4.0,8.0,48,0.00,,,0.00,meteohub,2013-04-05 15:27:00,
2013-04-05 16:32:00,44.6,26.1,30.22,SE,135,5.0,9.0,48,0.00,,,0.00,meteohub,2013-04-05 15:32:00,
2013-04-05 16:38:00,44.8,26.8,30.22,ESE,112,5.0,10.0,49,0.00,,,0.00,meteohub,2013-04-05 15:38:00,
2013-04-05 16:43:00,45.1,27.1,30.22,ENE,67,4.0,10.0,49,0.00,,,0.00,meteohub,2013-04-05 15:43:00,
2013-04-05 16:48:00,44.8,26.2,30.22,ENE,67,6.0,10.0,48,0.00,,,0.00,meteohub,2013-04-05 15:48:00,
2013-04-05 16:54:00,44.8,26.8,30.22,East,90,6.0,11.0,49,0.00,,,0.00,meteohub,2013-04-05 15:54:00,
2013-04-05 16:59:00,44.6,26.6,30.22,SSE,157,6.0,11.0,49,0.00,,,0.00,meteohub,2013-04-05 15:59:00,
2013-04-05 17:04:00,44.6,27.1,30.22,East,90,5.0,11.0,50,0.00,,,0.00,meteohub,2013-04-05 16:04:00,
2013-04-05 17:10:00,44.2,26.8,30.22,SSE,157,8.0,8.0,50,0.00,,,0.00,meteohub,2013-04-05 16:10:00,
2013-04-05 17:15:00,44.1,26.6,30.22,SE,135,6.0,8.0,50,0.00,,,0.00,meteohub,2013-04-05 16:15:00,
2013-04-05 17:20:00,43.7,26.2,30.22,ESE,112,4.0,8.0,50,0.00,,,0.00,meteohub,2013-04-05 16:20:00,
2013-04-05 17:25:00,43.3,26.4,30.22,ESE,112,5.0,8.0,51,0.00,,,0.00,meteohub,2013-04-05 16:25:00,
2013-04-05 17:30:00,43.3,26.4,30.22,East,90,4.0,8.0,51,0.00,,,0.00,meteohub,2013-04-05 16:30:00,
2013-04-05 17:36:00,43.5,26.6,30.22,ESE,112,7.0,9.0,51,0.00,,,0.00,meteohub,2013-04-05 16:36:00,
2013-04-05 17:41:00,43.3,26.4,30.22,SSE,157,6.0,9.0,51,0.00,,,0.00,meteohub,2013-04-05 16:41:00,
2013-04-05 17:46:00,43.3,26.4,30.22,South,180,4.0,9.0,51,0.00,,,0.00,meteohub,2013-04-05 16:46:00,
2013-04-05 17:51:00,43.2,26.2,30.22,SSE,157,7.0,9.0,51,0.00,,,0.00,meteohub,2013-04-05 16:51:00,
2013-04-05 17:57:00,43.0,26.1,30.22,East,90,6.0,9.0,51,0.00,,,0.00,meteohub,2013-04-05 16:57:00,
2013-04-05 18:02:00,43.2,26.8,30.22,South,180,6.0,9.0,52,0.00,,,0.00,meteohub,2013-04-05 17:02:00,
2013-04-05 18:07:00,42.8,25.9,30.22,SE,135,4.0,8.0,51,0.00,,,0.00,meteohub,2013-04-05 17:07:00,
2013-04-05 18:12:00,43.0,26.6,30.22,SSE,157,4.0,8.0,52,0.00,,,0.00,meteohub,2013-04-05 17:12:00,
2013-04-05 18:17:00,42.8,25.9,30.19,SSE,157,6.0,9.0,51,0.00,,,0.00,meteohub,2013-04-05 17:17:00,
2013-04-05 18:22:00,42.4,26.1,30.19,SSE,157,4.0,9.0,52,0.00,,,0.00,meteohub,2013-04-05 17:22:00,
2013-04-05 18:27:00,42.6,26.2,30.19,SE,135,3.0,9.0,52,0.00,,,0.00,meteohub,2013-04-05 17:27:00,
2013-04-05 18:32:00,42.4,26.1,30.22,SE,135,3.0,7.0,52,0.00,,,0.00,meteohub,2013-04-05 17:32:00,
2013-04-05 18:37:00,42.4,26.6,30.22,SSE,157,4.0,6.0,53,0.00,,,0.00,meteohub,2013-04-05 17:37:00,
2013-04-05 18:42:00,42.4,26.1,30.22,SE,135,6.0,7.0,52,0.00,,,0.00,meteohub,2013-04-05 17:42:00,
2013-04-05 18:48:00,42.3,25.9,30.22,SSE,157,4.0,7.0,52,0.00,,,0.00,meteohub,2013-04-05 17:48:00,
2013-04-05 18:53:00,42.1,25.7,30.22,SE,135,4.0,8.0,52,0.00,,,0.00,meteohub,2013-04-05 17:53:00,
2013-04-05 18:58:00,41.7,25.3,30.22,SE,135,7.0,8.0,52,0.00,,,0.00,meteohub,2013-04-05 17:58:00,
2013-04-05 19:03:00,41.5,25.2,30.22,South,180,4.0,8.0,52,0.00,,,0.00,meteohub,2013-04-05 18:03:00,
2013-04-05 19:08:00,41.5,25.7,30.22,SSW,202,5.0,8.0,53,0.00,,,0.00,meteohub,2013-04-05 18:08:00,
2013-04-05 19:14:00,41.2,25.3,30.22,South,180,4.0,8.0,53,0.00,,,0.00,meteohub,2013-04-05 18:14:00,
2013-04-05 19:19:00,41.0,25.2,30.22,South,180,2.0,9.0,53,0.00,,,0.00,meteohub,2013-04-05 18:19:00,
2013-04-05 19:24:00,40.8,25.0,30.22,South,180,6.0,9.0,53,0.00,,,0.00,meteohub,2013-04-05 18:24:00,
2013-04-05 19:29:00,40.5,24.6,30.22,South,180,3.0,9.0,53,0.00,,,0.00,meteohub,2013-04-05 18:29:00,
2013-04-05 19:34:00,40.3,24.4,30.22,SSW,202,3.0,6.0,53,0.00,,,0.00,meteohub,2013-04-05 18:34:00,
2013-04-05 19:40:00,40.1,24.3,30.22,SSW,202,3.0,7.0,53,0.00,,,0.00,meteohub,2013-04-05 18:40:00,
2013-04-05 19:45:00,39.9,24.3,30.22,SSW,202,4.0,7.0,53,0.00,,,0.00,meteohub,2013-04-05 18:45:00,
2013-04-05 19:50:00,39.6,23.9,30.22,SSW,202,3.0,6.0,53,0.00,,,0.00,meteohub,2013-04-05 18:50:00,
2013-04-05 19:55:00,39.2,23.5,30.22,SSW,202,0.0,6.0,53,0.00,,,0.00,meteohub,2013-04-05 18:55:00,
2013-04-05 20:00:00,38.8,23.2,30.22,SW,225,0.0,6.0,53,0.00,,,0.00,meteohub,2013-04-05 19:00:00,
2013-04-05 20:05:00,38.5,22.8,30.22,SSW,202,0.0,4.0,53,0.00,,,0.00,meteohub,2013-04-05 19:05:00,
2013-04-05 20:12:00,38.1,22.5,30.22,SSW,202,0.0,3.0,53,0.00,,,0.00,meteohub,2013-04-05 19:12:00,
2013-04-05 20:17:00,37.9,22.8,30.22,SSW,202,3.0,3.0,54,0.00,,,0.00,meteohub,2013-04-05 19:17:00,
2013-04-05 20:23:00,37.6,22.5,30.22,SSW,202,0.0,3.0,54,0.00,,,0.00,meteohub,2013-04-05 19:23:00,
2013-04-05 20:28:00,37.4,22.3,30.22,SSW,202,2.0,3.0,54,0.00,,,0.00,meteohub,2013-04-05 19:28:00,
2013-04-05 20:33:00,37.2,22.5,30.22,South,180,2.0,3.0,55,0.00,,,0.00,meteohub,2013-04-05 19:33:00,
2013-04-05 20:39:00,37.0,22.5,30.22,South,180,1.0,3.0,55,0.00,,,0.00,meteohub,2013-04-05 19:39:00,
2013-04-05 20:44:00,37.0,22.5,30.22,South,180,0.0,3.0,55,0.00,,,0.00,meteohub,2013-04-05 19:44:00,
2013-04-05 20:49:00,36.9,22.3,30.22,South,180,0.0,3.0,55,0.00,,,0.00,meteohub,2013-04-05 19:49:00,
2013-04-05 20:54:00,36.7,22.1,30.22,WNW,292,0.0,3.0,55,0.00,,,0.00,meteohub,2013-04-05 19:54:00,
2013-04-05 21:00:00,36.3,21.7,30.22,West,270,1.0,3.0,55,0.00,,,0.00,meteohub,2013-04-05 20:00:00,
2013-04-05 21:05:00,36.0,21.4,30.22,West,270,1.0,3.0,55,0.00,,,0.00,meteohub,2013-04-05 20:05:00,
2013-04-05 21:10:00,35.8,21.6,30.22,West,270,0.0,3.0,56,0.00,,,0.00,meteohub,2013-04-05 20:10:00,
2013-04-05 21:16:00,35.6,21.4,30.22,WSW,247,0.0,2.0,56,0.00,,,0.00,meteohub,2013-04-05 20:16:00,
2013-04-05 21:21:00,35.4,21.2,30.22,WSW,247,0.0,2.0,56,0.00,,,0.00,meteohub,2013-04-05 20:21:00,
2013-04-05 21:27:00,35.2,21.6,30.22,WSW,247,0.0,3.0,57,0.00,,,0.00,meteohub,2013-04-05 20:27:00,
2013-04-05 21:32:00,35.1,21.4,30.22,WSW,247,0.0,3.0,57,0.00,,,0.00,meteohub,2013-04-05 20:32:00,
2013-04-05 21:37:00,34.9,21.6,30.22,West,270,0.0,3.0,58,0.00,,,0.00,meteohub,2013-04-05 20:37:00,
2013-04-05 21:42:00,34.9,21.6,30.22,WSW,247,0.0,2.0,58,0.00,,,0.00,meteohub,2013-04-05 20:42:00,
2013-04-05 21:47:00,34.7,21.4,30.22,West,270,0.0,2.0,58,0.00,,,0.00,meteohub,2013-04-05 20:47:00,
2013-04-05 21:52:00,34.5,21.2,30.22,WSW,247,0.0,2.0,58,0.00,,,0.00,meteohub,2013-04-05 20:52:00,
2013-04-05 21:57:00,34.5,21.2,30.22,WSW,247,0.0,0.0,58,0.00,,,0.00,meteohub,2013-04-05 20:57:00,
2013-04-05 22:02:00,34.5,21.7,30.22,WSW,247,0.0,0.0,59,0.00,,,0.00,meteohub,2013-04-05 21:02:00,
2013-04-05 22:07:00,34.3,21.6,30.22,WNW,292,1.0,0.0,59,0.00,,,0.00,meteohub,2013-04-05 21:07:00,
2013-04-05 22:12:00,34.3,21.6,30.22,West,270,0.0,2.0,59,0.00,,,0.00,meteohub,2013-04-05 21:12:00,
2013-04-05 22:17:00,34.3,21.6,30.25,WSW,247,0.0,2.0,59,0.00,,,0.00,meteohub,2013-04-05 21:17:00,
2013-04-05 22:22:00,34.3,21.9,30.25,West,270,0.0,2.0,60,0.00,,,0.00,meteohub,2013-04-05 21:22:00,
2013-04-05 22:28:00,34.2,21.7,30.25,WSW,247,0.0,0.0,60,0.00,,,0.00,meteohub,2013-04-05 21:28:00,
2013-04-05 22:33:00,34.0,21.6,30.25,WSW,247,1.0,0.0,60,0.00,,,0.00,meteohub,2013-04-05 21:33:00,
2013-04-05 22:38:00,34.0,21.6,30.25,WSW,247,0.0,2.0,60,0.00,,,0.00,meteohub,2013-04-05 21:38:00,
2013-04-05 22:43:00,33.8,21.4,30.25,West,270,0.0,2.0,60,0.00,,,0.00,meteohub,2013-04-05 21:43:00,
2013-04-05 22:49:00,33.8,21.7,30.25,West,270,2.0,2.0,61,0.00,,,0.00,meteohub,2013-04-05 21:49:00,
2013-04-05 22:55:00,33.8,21.7,30.25,West,270,0.0,3.0,61,0.00,,,0.00,meteohub,2013-04-05 21:55:00,
2013-04-05 23:01:00,33.6,21.9,30.25,SW,225,0.0,3.0,62,0.00,,,0.00,meteohub,2013-04-05 22:01:00,
2013-04-05 23:06:00,33.6,21.9,30.22,WSW,247,2.0,3.0,62,0.00,,,0.00,meteohub,2013-04-05 22:06:00,
2013-04-05 23:12:00,33.6,21.9,30.22,WSW,247,0.0,2.0,62,0.00,,,0.00,meteohub,2013-04-05 22:12:00,
2013-04-05 23:17:00,33.4,21.7,30.22,WSW,247,0.0,2.0,62,0.00,,,0.00,meteohub,2013-04-05 22:17:00,
2013-04-05 23:22:00,33.3,21.7,30.25,WSW,247,0.0,2.0,62,0.00,,,0.00,meteohub,2013-04-05 22:22:00,
2013-04-05 23:27:00,33.4,22.3,30.25,WSW,247,0.0,2.0,63,0.00,,,0.00,meteohub,2013-04-05 22:27:00,
2013-04-05 23:33:00,33.4,22.3,30.22,WSW,247,0.0,0.0,63,0.00,,,0.00,meteohub,2013-04-05 22:33:00,
2013-04-05 23:38:00,33.4,22.3,30.22,West,270,0.0,0.0,63,0.00,,,0.00,meteohub,2013-04-05 22:38:00,
2013-04-05 23:43:00,33.3,22.1,30.22,West,270,0.0,0.0,63,0.00,,,0.00,meteohub,2013-04-05 22:43:00,
2013-04-05 23:49:00,33.3,22.1,30.22,WNW,292,1.0,0.0,63,0.00,,,0.00,meteohub,2013-04-05 22:49:00,
2013-04-05 23:54:00,33.1,21.9,30.22,West,270,0.0,2.0,63,0.00,,,0.00,meteohub,2013-04-05 22:54:00,
2013-04-05 23:59:00,32.9,21.7,30.22,WSW,247,0.0,2.0,63,0.00,,,0.00,meteohub,2013-04-05 22:59:00,